CZ-6A DEB, 61115

Orbit data source: Space-Track

CZ-6A DEB, 61115 is space debris in LEO originally from a launch on Tue, 06 Aug 2024 UTC launched from the Taiyaun Space Center, China (TSC). Debris objects in space refer to the collection of defunct objects orbiting the Earth. Examples of debris include non-operational satellites, rocket bodies, and fragments generated from explosions, collisions, or faulty payload assembly.

Loading next visibility...
Identifier
61115, 2024-140PH
Orbit
LEO
Country
Flag of CNCN / PRC
Related business
Manufacturer
SAST
Mission
Spacecraft
Bus & Motor
Unknown
Mass
Unknown
Launch date (UTC)
2024-08-06 (2 years ago)
Launch vehicle
Unknown
Launch site
Taiyaun Space Center, China (TSC)
Object type
Payload
Rocket body
Debris
Shape & HBR
Unknown shape, 0.1 m
Radar Cross Section
Medium (>0.1 m² and <1 m²)

Expand to show TLE details & history
Last TLE update: 16 hours ago

TLE from 16 hours ago
0 CZ-6A DEB
1 61115U 24140PH  26171.30358573  .00002567  00000-0  10099-2 0  9997
2 61115  89.1214 283.5157 0080139 216.1799 143.3960 14.27257905 95190
Epoch: 2026-06-20T07:17Z
TLE epoch observation values (Epoch: 2026-06-20T07:17:09.807Z)
Latitude
0.00006°
Longitude
-94.2953°
Altitude
850.333 km
Speed
7.403 km/s
True Right ascension
18h 54m 03s
True Declination
0° 00' 00"
Sunlit
Object was in full shadow at epoch
Visualization orbit readout
Latitude
Unknown
Longitude
Unknown
Altitude
Unknown
Speed
Unknown
Apparent Right ascension
Unknown
Apparent Declination
Unknown
Sunlit
N/A
Visualization observer readout
Local Sidereal Time
10:20:29
Azimuth
Unknown
Elevation
Unknown
Doppler factor
Unknown
Orbital elements
Apogee altitude
855.359 km
Perigee altitude
740.343 km
Semi-major axis
7,175.988 km
Eccentricity
0.00801
Inclination
89.1214°
RAAN
283.5157°
Arg. of periapsis
216.1799°
True anomaly
143.9392°
Mean anomaly
143.396°
Eccentric anomaly
143.66804°
Mean motion
3.57043 °/min
Orbital period
100.83 mins
BSTAR
0.0010099
Loading maneuver chart data...
Computing Atmospheric mass density...
Loading historical data...
Loading historical data...
Loading historical data...
Loading historical data...
Loading historical data...
Loading historical data...
Loading historical data...

Documentation

Showing up to 5 results
|